Overview Statistics Trail Chart Weather Telemetry Raw packets
 

This is the latest recevied weather packets stored in our database for station/object SV9TNF-57. If no packets are shown the sender has not sent any weather packets the latest 10 day(s).

<< 12 13 14 15 16 17 18 >>
Time Temp. Humidity Pressure Rain* Wind** Luminosity Snow
1788573750 24.44° C 55% 995.4 hPa 0 mm 0.45 m/s, 299° - -
1788573450 24.44° C 57% 995.4 hPa 0 mm 0 m/s - -
1788573150 24.44° C 58% 995.5 hPa 0 mm 0 m/s - -
1788572850 24.44° C 58% 995.5 hPa 0 mm 0 m/s - -
1788572550 24.44° C 57% 995.7 hPa 0 mm 2.68 m/s, 284° - -
1788572250 25° C 56% 995.7 hPa 0 mm 0.89 m/s, 285° - -
1788571949 24.44° C 57% 995.6 hPa 0 mm 0 m/s - -
1788571650 25° C 58% 995.9 hPa 0 mm 0 m/s - -
1788571349 25° C 57% 995.7 hPa 0 mm 0.45 m/s, 257° - -
1788571049 25° C 57% 995.7 hPa 0 mm 2.68 m/s, 275° - -
1788570749 25° C 58% 995.6 hPa 0 mm 1.34 m/s, 309° - -
1788570449 25° C 60% 995.6 hPa 0 mm 0.45 m/s, 246° - -
1788570149 25° C 60% 995.7 hPa 0 mm 4.47 m/s, 252° - -
1788569849 24.44° C 62% 995.7 hPa 0 mm 3.58 m/s, 350° - -
1788569549 24.44° C 63% 995.7 hPa 0 mm 1.79 m/s, 258° - -
1788569249 24.44° C 63% 995.7 hPa 0 mm 1.79 m/s, 281° - -
1788568949 24.44° C 62% 995.9 hPa 0 mm 5.36 m/s, 271° - -
1788568649 24.44° C 62% 995.7 hPa 0 mm 0 m/s - -
1788568349 24.44° C 62% 995.8 hPa 0 mm 3.13 m/s, 274° - -
1788568048 24.44° C 62% 995.7 hPa 0 mm 0 m/s - -
1788567748 24.44° C 63% 996.1 hPa 0 mm 0 m/s - -
1788567448 24.44° C 63% 995.7 hPa 0 mm 2.24 m/s, 273° - -
1788567148 24.44° C 63% 995.8 hPa 0 mm 0.45 m/s, 284° - -
1788566848 25° C 62% 995.9 hPa 0 mm 0.45 m/s, 291° - -
1788566548 25° C 61% 995.8 hPa 0 mm 0.89 m/s, 263° - -

* Rain latest hour (hover to see other rain measurements)
** Current wind speed in m/s (hover to see current wind gust speed)